EW6246 Weather Reports


Display with metric or nautical units.
time (UTC)temp
F
wind
direction
speed
MPH
gust
MPH
rain 1hr
in
rain 24hr
in
rain mn
in
humidity
%
barometer
mb
20260504060155 64 293 0.0 0.0 0.00 0.00 0.00 94 1017.8
20260504050624 64 307 0.0 1.0 0.00 0.00 0.00 95 1018.4
20260504050121 64 317 1.0 1.0 0.00 0.00 0.00 95 1018.6
20260504045618 64 291 0.0 0.0 0.00 0.00 0.00 95 1018.6
20260504045112 64 301 0.0 0.0 0.00 0.00 0.00 95 1018.6
20260504044611 64 299 0.0 0.0 0.00 0.00 0.00 95 1018.7
20260504044107 64 281 0.0 0.0 0.00 0.00 0.00 95 1018.9
20260504043604 64 295 0.0 0.0 0.00 0.00 0.00 95 1018.9
20260504043101 64 291 0.0 0.0 0.00 0.00 0.00 95 1018.9
20260504042558 64 294 0.0 0.0 0.00 0.00 0.00 95 1018.7
20260504042055 64 291 0.0 0.0 0.00 0.00 0.00 95 1019.1
20260504041551 64 306 0.0 0.0 0.00 0.00 0.00 95 1019.2
20260504041048 65 295 0.0 0.0 0.00 0.00 0.00 95 1019.1
20260504040545 65 289 1.0 1.0 0.00 0.00 0.00 95 1019.2
20260504040041 64 294 1.0 1.0 0.00 0.00 0.00 95 1019.3
20260504035538 64 286 0.0 0.0 0.00 0.00 0.00 95 1019.1
20260504035034 65 274 0.0 0.0 0.00 0.00 0.00 95 1019.6
20260504034533 65 281 0.0 0.0 0.00 0.00 0.00 94 1019.4
20260504034029 65 285 0.0 0.0 0.00 0.00 0.00 94 1019.5
20260504033528 65 285 0.0 0.0 0.00 0.00 0.00 94 1019.4
20260504033024 65 283 0.0 0.0 0.00 0.00 0.00 94 1019.3
20260504032521 65 281 0.0 0.0 0.00 0.00 0.00 94 1019.5
20260504032018 65 285 0.0 0.0 0.00 0.00 0.00 94 1019.2
20260504031515 65 284 0.0 0.0 0.00 0.00 0.00 94 1019.3
20260504031011 65 282 0.0 0.0 0.00 0.00 0.00 94 1019.4
20260504030509 65 285 0.0 0.0 0.00 0.00 0.00 94 1019.5
20260504030004 65 292 0.0 1.0 0.00 0.00 0.00 94 1019.4
20260504025501 65 283 0.0 0.0 0.00 0.00 0.00 94 1019.5
20260504024958 66 283 0.0 0.0 0.00 0.00 0.00 93 1019.2
20260504024455 65 284 0.0 0.0 0.00 0.00 0.00 94 1019.1
20260504023953 65 287 0.0 1.0 0.00 0.00 0.00 95 1019.2
20260504023449 65 280 0.0 1.0 0.00 0.00 0.00 95 1019.1
20260504022944 66 281 0.0 0.0 0.00 0.00 0.00 95 1018.9
20260504022441 66 276 0.0 0.0 0.00 0.00 0.00 95 1018.9
20260504021938 66 277 0.0 0.0 0.00 0.00 0.00 94 1018.7
20260504021435 66 274 0.0 0.0 0.00 0.00 0.00 93 1018.9
20260504020932 66 275 0.0 0.0 0.00 0.00 0.00 93 1018.7
20260504020429 66 286 0.0 0.0 0.00 0.00 0.00 93 1018.5
20260504015925 66 277 0.0 0.0 0.00 0.00 0.00 93 1018.9
20260504015421 66 280 0.0 0.0 0.00 0.00 0.00 93 1018.9
20260504014917 66 279 0.0 0.0 0.00 0.00 0.00 93 1018.9
20260504014414 67 288 1.0 1.0 0.00 0.00 0.00 93 1018.7
20260504013911 67 284 0.0 0.0 0.00 0.00 0.00 92 1018.7
20260504013409 67 279 1.0 1.0 0.00 0.00 0.00 93 1018.6
20260504012905 67 274 0.0 0.0 0.00 0.00 0.00 92 1018.5
20260504012403 67 274 0.0 1.0 0.00 0.00 0.00 92 1018.7
20260504011900 67 271 0.0 0.0 0.00 0.00 0.00 92 1018.6
20260504011357 67 280 1.0 1.0 0.00 0.00 0.00 92 1018.6
20260504010853 67 272 0.0 0.0 0.00 0.00 0.00 92 1018.6
20260504010348 67 273 0.0 0.0 0.00 0.00 0.00 93 1018.7
20260504005845 67 269 0.0 0.0 0.00 0.00 0.00 92 1018.9
20260504005342 67 269 0.0 0.0 0.00 0.00 0.00 93 1018.9
20260504004840 68 271 0.0 0.0 0.00 0.00 0.00 93 1018.7
20260504004337 68 270 0.0 0.0 0.00 0.00 0.00 92 1018.7
20260504003833 68 269 0.0 0.0 0.00 0.00 0.00 93 1018.6
20260504003331 68 269 0.0 0.0 0.00 0.00 0.00 93 1018.3
20260504002827 69 272 0.0 0.0 0.00 0.00 0.00 92 1018.4
20260504002324 69 267 0.0 0.0 0.00 0.00 0.00 92 1018.4
20260504001822 69 273 0.0 0.0 0.00 0.00 0.00 91 1018.4
20260504001319 70 279 0.0 1.0 0.00 0.00 0.00 91 1018.0
20260504000815 70 286 0.0 0.0 0.00 0.00 0.00 91 1018.2
20260504000312 70 286 0.0 0.0 0.00 0.00 0.00 90 1018.1
20260503235810 70 277 0.0 1.0 0.00 0.00 0.00 90 1018.3
20260503235308 70 281 1.0 1.0 0.00 0.00 0.00 90 1018.3
20260503234805 70 267 0.0 0.0 0.00 0.00 0.00 89 1018.0
20260503234303 70 287 0.0 1.0 0.00 0.00 0.00 90 1018.2
20260503233800 71 259 0.0 1.0 0.00 0.00 0.00 89 1018.2
20260503233255 71 279 0.0 1.0 0.00 0.00 0.00 88 1018.0
20260503232753 71 282 1.0 1.0 0.00 0.00 0.00 87 1017.9
20260503232250 71 261 0.0 0.0 0.00 0.00 0.00 87 1018.0
20260503231748 71 258 1.0 1.0 0.00 0.00 0.00 87 1018.0
20260503231245 71 262 0.0 0.0 0.00 0.00 0.00 86 1018.1
20260503230740 72 275 1.0 2.0 0.00 0.00 0.00 85 1017.8
20260503230238 72 269 3.0 3.0 0.00 0.00 0.00 85 1017.8
20260503225736 72 258 0.0 1.0 0.00 0.00 0.00 86 1017.6
20260503225235 72 258 1.0 1.0 0.00 0.00 0.00 85 1017.7
20260503224732 72 258 1.0 2.0 0.00 0.00 0.00 85 1017.7
20260503224230 73 262 1.0 2.0 0.00 0.00 0.00 85 1017.6
20260503223728 73 258 1.0 1.0 0.00 0.00 0.00 84 1017.7
20260503223225 73 258 2.0 3.0 0.00 0.00 0.00 84 1017.7
20260503222721 74 258 1.0 1.0 0.00 0.00 0.00 84 1017.4
20260503222219 74 258 1.0 2.0 0.00 0.00 0.00 83 1017.4
20260503221717 74 258 3.0 3.0 0.00 0.00 0.00 83 1017.4
20260503221215 75 258 2.0 2.0 0.00 0.00 0.00 82 1017.2
20260503220711 75 258 3.0 6.0 0.00 0.00 0.00 81 1017.4
20260503220208 75 258 1.0 1.0 0.00 0.00 0.00 82 1017.6
20260503215705 76 258 4.0 5.0 0.00 0.00 0.00 81 1017.6
20260503215202 76 258 1.0 2.0 0.00 0.00 0.00 80 1017.5
20260503214700 76 258 2.0 2.0 0.00 0.00 0.00 80 1017.4
20260503214155 77 258 3.0 5.0 0.00 0.00 0.00 77 1017.2
20260503213649 77 258 3.0 3.0 0.00 0.00 0.00 78 1017.3
20260503213146 78 258 2.0 5.0 0.00 0.00 0.00 77 1017.3
20260503212643 79 258 3.0 5.0 0.00 0.00 0.00 74 1017.4
20260503212140 80 258 1.0 2.0 0.00 0.00 0.00 72 1017.3
20260503211638 79 258 1.0 2.0 0.00 0.00 0.00 72 1017.2
20260503211133 79 258 1.0 1.0 0.00 0.00 0.00 74 1017.0
20260503210630 78 258 4.0 6.0 0.00 0.00 0.00 75 1017.2
20260503210127 78 258 2.0 3.0 0.00 0.00 0.00 76 1017.1
20260503205622 78 258 3.0 3.0 0.00 0.00 0.00 75 1017.2
20260503205119 79 258 3.0 5.0 0.00 0.00 0.00 74 1017.2
20260503204616 80 258 2.0 3.0 0.00 0.00 0.00 73 1017.2
20260503204113 79 258 2.0 3.0 0.00 0.00 0.00 76 1017.1
20260503203610 79 258 4.0 5.0 0.00 0.00 0.00 73 1017.1
20260503203108 79 258 1.0 3.0 0.00 0.00 0.00 76 1017.2
20260503202605 80 258 3.0 5.0 0.00 0.00 0.00 73 1017.1
20260503202103 80 258 3.0 5.0 0.00 0.00 0.00 72 1017.3
20260503201600 81 258 0.0 1.0 0.00 0.00 0.00 72 1017.3
20260503201057 81 258 5.0 10.0 0.00 0.00 0.00 71 1017.2
20260503200554 81 258 1.0 1.0 0.00 0.00 0.00 71 1017.1
20260503200050 82 258 3.0 3.0 0.00 0.00 0.00 71 1017.4
20260503195547 81 258 2.0 2.0 0.00 0.00 0.00 71 1017.2
20260503195044 81 258 2.0 2.0 0.00 0.00 0.00 72 1017.2
20260503194541 81 258 2.0 2.0 0.00 0.00 0.00 73 1017.3
20260503194041 81 258 3.0 3.0 0.00 0.00 0.00 73 1017.4
20260503193538 80 258 2.0 2.0 0.00 0.00 0.00 73 1017.5
20260503193033 80 258 2.0 2.0 0.00 0.00 0.00 73 1017.6
20260503192530 82 258 3.0 3.0 0.00 0.00 0.00 71 1017.6
20260503192026 80 258 1.0 2.0 0.00 0.00 0.00 71 1017.4
20260503191523 80 258 2.0 2.0 0.00 0.00 0.00 72 1017.4
20260503191019 80 258 3.0 6.0 0.00 0.00 0.00 71 1017.5
20260503190516 80 258 5.0 7.0 0.00 0.00 0.00 72 1017.9
20260503190014 81 258 4.0 8.0 0.00 0.00 0.00 70 1017.8
20260503185509 81 258 1.0 1.0 0.00 0.00 0.00 71 1017.8
20260503185004 80 258 2.0 3.0 0.00 0.00 0.00 71 1017.9
20260503184500 80 258 2.0 3.0 0.00 0.00 0.00 72 1017.9
20260503183956 81 258 3.0 3.0 0.00 0.00 0.00 70 1018.0
20260503183453 81 258 4.0 7.0 0.00 0.00 0.00 72 1018.0
20260503182950 82 258 4.0 6.0 0.00 0.00 0.00 70 1018.0
20260503182449 81 258 2.0 2.0 0.00 0.00 0.00 71 1017.9
20260503181941 80 258 1.0 2.0 0.00 0.00 0.00 72 1018.3
20260503181438 81 258 4.0 5.0 0.00 0.00 0.00 72 1018.3
20260503180933 81 258 4.0 7.0 0.00 0.00 0.00 69 1018.2
20260503180432 81 258 3.0 6.0 0.00 0.00 0.00 70 1018.2
20260503175929 81 258 4.0 6.0 0.00 0.00 0.00 70 1018.3
20260503175427 81 258 1.0 1.0 0.00 0.00 0.00 69 1018.1
20260503174922 81 258 3.0 3.0 0.00 0.00 0.00 70 1018.4
20260503174420 81 269 2.0 2.0 0.00 0.00 0.00 72 1018.3
20260503173914 80 258 1.0 2.0 0.00 0.00 0.00 73 1018.3
20260503173411 79 258 3.0 5.0 0.00 0.00 0.00 74 1018.4
20260503172908 81 285 3.0 5.0 0.00 0.00 0.00 74 1018.5
20260503172405 81 14 4.0 7.0 0.00 0.00 0.00 73 1018.7
20260503171901 80 297 2.0 3.0 0.00 0.00 0.00 78 1018.6
20260503171358 79 258 1.0 1.0 0.00 0.00 0.00 78 1018.7
20260503170855 81 298 4.0 5.0 0.00 0.00 0.00 75 1018.6
20260503170352 81 315 1.0 1.0 0.00 0.00 0.00 76 1018.6
20260503150744 81 319 1.0 1.0 0.00 0.00 0.00 67 1019.6
20260503150240 80 345 0.0 1.0 0.00 0.00 0.00 66 1019.7
20260503140204 78 352 0.0 1.0 0.00 0.00 0.00 70 1020.1
20260503131134 77 299 0.0 1.0 0.00 0.00 0.00 73 1020.0
20260503130632 77 326 0.0 1.0 0.00 0.00 0.00 74 1019.7
20260503130129 76 291 0.0 1.0 0.00 0.00 0.00 75 1019.8
20260503110516 68 266 0.0 0.0 0.00 0.00 0.00 88 1018.7
20260503090402 63 291 0.0 0.0 0.00 0.00 0.00 96 1018.2
20260503081329 63 290 0.0 0.0 0.00 0.00 0.00 96 1017.7
20260503080825 63 291 0.0 0.0 0.00 0.00 0.00 95 1017.7
20260503080317 63 290 0.0 0.0 0.00 0.00 0.00 95 1017.8
20260503072753 62 295 1.0 1.0 0.00 0.00 0.00 94 1018.0
20260503072250 62 293 0.0 0.0 0.00 0.00 0.00 94 1018.3
20260503071746 62 296 0.0 1.0 0.00 0.00 0.00 94 1018.1
20260503071244 62 291 0.0 0.0 0.00 0.00 0.00 94 1018.2
20260503070740 62 293 0.0 0.0 0.00 0.00 0.00 94 1018.2
20260503070238 62 291 0.0 0.0 0.00 0.00 0.00 94 1018.2